| time (UTC) | temp C | wind direction | speed KPH | gust KPH | rain 1hr cm | rain 24hr cm | rain mn cm | humidity % | barometer mb |
| 20260504110409 | 7 | 282 | 0.0 | 0.0 | 0.00 | 0.00 | 0.00 | 78 | 1013.9 |
| 20260504100326 | 4 | 321 | 0.0 | 0.0 | 0.00 | 0.00 | 0.00 | 89 | 1013.6 |
| 20260504081720 | 5 | 311 | 0.0 | 0.0 | 0.00 | 0.00 | 0.00 | 89 | 1014.0 |
| 20260504081216 | 5 | 309 | 0.0 | 0.0 | 0.00 | 0.00 | 0.00 | 86 | 1013.9 |
| 20260504080713 | 5 | 300 | 0.0 | 0.0 | 0.00 | 0.00 | 0.00 | 84 | 1014.1 |
| 20260504080209 | 5 | 270 | 0.0 | 0.0 | 0.00 | 0.00 | 0.00 | 82 | 1013.9 |
| 20260504070137 | 5 | 226 | 0.0 | 1.6 | 0.00 | 0.00 | 0.00 | 81 | 1014.2 |
| 20260504050526 | 5 | 281 | 0.0 | 0.0 | 0.00 | 0.00 | 0.00 | 80 | 1014.7 |
| 20260504050023 | 5 | 287 | 0.0 | 0.0 | 0.00 | 0.00 | 0.00 | 79 | 1014.8 |
| 20260504045519 | 4 | 264 | 0.0 | 1.6 | 0.00 | 0.00 | 0.00 | 84 | 1014.9 |
| 20260504045015 | 4 | 301 | 0.0 | 0.0 | 0.00 | 0.00 | 0.00 | 85 | 1014.8 |
| 20260504044513 | 4 | 299 | 0.0 | 0.0 | 0.00 | 0.00 | 0.00 | 84 | 1014.7 |
| 20260504044009 | 5 | 318 | 0.0 | 0.0 | 0.00 | 0.00 | 0.00 | 82 | 1014.7 |
| 20260504043506 | 6 | 299 | 0.0 | 0.0 | 0.00 | 0.00 | 0.00 | 78 | 1014.5 |
| 20260504043004 | 7 | 296 | 0.0 | 0.0 | 0.00 | 0.00 | 0.00 | 68 | 1015.0 |
| 20260504042500 | 7 | 281 | 3.2 | 3.2 | 0.00 | 0.00 | 0.00 | 67 | 1014.5 |
| 20260504041957 | 6 | 290 | 0.0 | 3.2 | 0.00 | 0.00 | 0.00 | 67 | 1014.7 |
| 20260504041453 | 6 | 276 | 0.0 | 1.6 | 0.00 | 0.00 | 0.00 | 73 | 1014.5 |
| 20260504040949 | 5 | 217 | 3.2 | 4.8 | 0.00 | 0.00 | 0.00 | 76 | 1014.4 |
| 20260504040447 | 6 | 243 | 0.0 | 1.6 | 0.00 | 0.00 | 0.00 | 79 | 1014.3 |
| 20260504035943 | 6 | 306 | 0.0 | 0.0 | 0.00 | 0.00 | 0.00 | 68 | 1014.5 |
| 20260504035441 | 6 | 307 | 0.0 | 0.0 | 0.00 | 0.00 | 0.00 | 69 | 1014.4 |
| 20260504034937 | 6 | 308 | 0.0 | 0.0 | 0.00 | 0.00 | 0.00 | 70 | 1014.5 |
| 20260504034435 | 6 | 308 | 0.0 | 0.0 | 0.00 | 0.00 | 0.00 | 70 | 1014.4 |
| 20260504033931 | 6 | 314 | 0.0 | 0.0 | 0.00 | 0.00 | 0.00 | 74 | 1014.5 |
| 20260504033429 | 6 | 320 | 0.0 | 0.0 | 0.00 | 0.00 | 0.00 | 72 | 1014.2 |
| 20260504032926 | 6 | 295 | 0.0 | 0.0 | 0.00 | 0.00 | 0.00 | 72 | 1014.4 |
| 20260504032423 | 7 | 318 | 0.0 | 0.0 | 0.00 | 0.00 | 0.00 | 70 | 1014.2 |
| 20260504031920 | 8 | 351 | 0.0 | 0.0 | 0.00 | 0.00 | 0.00 | 67 | 1014.3 |
| 20260504031417 | 8 | 289 | 0.0 | 0.0 | 0.00 | 0.00 | 0.00 | 58 | 1014.4 |
| 20260504030913 | 8 | 294 | 0.0 | 0.0 | 0.00 | 0.00 | 0.00 | 61 | 1014.2 |
| 20260504030410 | 8 | 250 | 0.0 | 3.2 | 0.00 | 0.00 | 0.00 | 60 | 1014.4 |
| 20260504025906 | 7 | 219 | 1.6 | 3.2 | 0.00 | 0.00 | 0.00 | 67 | 1014.4 |
| 20260504025403 | 7 | 285 | 1.6 | 1.6 | 0.00 | 0.00 | 0.00 | 66 | 1014.3 |
| 20260504024900 | 7 | 306 | 0.0 | 0.0 | 0.00 | 0.00 | 0.00 | 65 | 1014.3 |
| 20260504024356 | 7 | 306 | 0.0 | 0.0 | 0.00 | 0.00 | 0.00 | 66 | 1014.1 |
| 20260504023854 | 7 | 301 | 0.0 | 0.0 | 0.00 | 0.00 | 0.00 | 66 | 1014.4 |
| 20260504023350 | 7 | 298 | 0.0 | 0.0 | 0.00 | 0.00 | 0.00 | 70 | 1014.2 |
| 20260504022846 | 7 | 299 | 0.0 | 0.0 | 0.00 | 0.00 | 0.00 | 72 | 1014.0 |
| 20260504022343 | 7 | 279 | 0.0 | 0.0 | 0.00 | 0.00 | 0.00 | 67 | 1014.2 |
| 20260504021839 | 7 | 298 | 0.0 | 0.0 | 0.00 | 0.00 | 0.00 | 68 | 1014.0 |
| 20260504021337 | 7 | 323 | 0.0 | 0.0 | 0.00 | 0.00 | 0.00 | 70 | 1014.0 |
| 20260504020834 | 8 | 317 | 0.0 | 0.0 | 0.00 | 0.00 | 0.00 | 65 | 1014.0 |
| 20260504020331 | 9 | 297 | 0.0 | 0.0 | 0.00 | 0.00 | 0.00 | 60 | 1014.0 |
| 20260504015826 | 9 | 293 | 0.0 | 0.0 | 0.00 | 0.00 | 0.00 | 59 | 1013.8 |
| 20260504015323 | 9 | 290 | 0.0 | 0.0 | 0.00 | 0.00 | 0.00 | 59 | 1013.9 |
| 20260504014819 | 9 | 276 | 0.0 | 0.0 | 0.00 | 0.00 | 0.00 | 59 | 1014.0 |
| 20260504014315 | 8 | 286 | 0.0 | 0.0 | 0.00 | 0.00 | 0.00 | 61 | 1014.0 |
| 20260504013813 | 9 | 308 | 0.0 | 0.0 | 0.00 | 0.00 | 0.00 | 58 | 1013.9 |
| 20260504013311 | 10 | 308 | 0.0 | 0.0 | 0.00 | 0.00 | 0.00 | 58 | 1013.9 |
| 20260504012807 | 10 | 310 | 0.0 | 0.0 | 0.00 | 0.00 | 0.00 | 57 | 1013.6 |
| 20260504012305 | 10 | 303 | 0.0 | 0.0 | 0.00 | 0.00 | 0.00 | 56 | 1013.8 |
| 20260504011802 | 10 | 305 | 0.0 | 0.0 | 0.00 | 0.00 | 0.00 | 57 | 1013.5 |
| 20260504011258 | 10 | 305 | 0.0 | 0.0 | 0.00 | 0.00 | 0.00 | 56 | 1013.4 |
| 20260504010754 | 10 | 303 | 0.0 | 0.0 | 0.00 | 0.00 | 0.00 | 55 | 1013.4 |
| 20260504010250 | 10 | 302 | 0.0 | 0.0 | 0.00 | 0.00 | 0.00 | 53 | 1013.5 |
| 20260504005747 | 11 | 302 | 0.0 | 0.0 | 0.00 | 0.00 | 0.00 | 52 | 1013.5 |
| 20260504005244 | 11 | 308 | 0.0 | 0.0 | 0.00 | 0.00 | 0.00 | 48 | 1013.5 |
| 20260504004742 | 12 | 308 | 0.0 | 0.0 | 0.00 | 0.00 | 0.00 | 47 | 1013.5 |
| 20260504004239 | 11 | 300 | 0.0 | 0.0 | 0.00 | 0.00 | 0.00 | 48 | 1013.5 |
| 20260504003735 | 11 | 305 | 0.0 | 0.0 | 0.00 | 0.00 | 0.00 | 47 | 1013.6 |
| 20260504003232 | 12 | 317 | 0.0 | 0.0 | 0.00 | 0.00 | 0.00 | 49 | 1013.3 |
| 20260504002729 | 13 | 301 | 0.0 | 0.0 | 0.00 | 0.00 | 0.00 | 42 | 1013.5 |
| 20260504002226 | 13 | 302 | 0.0 | 0.0 | 0.00 | 0.00 | 0.00 | 42 | 1013.5 |
| 20260504001724 | 13 | 302 | 0.0 | 0.0 | 0.00 | 0.00 | 0.00 | 40 | 1013.2 |
| 20260504001220 | 13 | 295 | 0.0 | 0.0 | 0.00 | 0.00 | 0.00 | 39 | 1013.3 |
| 20260504000717 | 13 | 305 | 0.0 | 0.0 | 0.00 | 0.00 | 0.00 | 40 | 1013.1 |
| 20260504000214 | 13 | 306 | 0.0 | 0.0 | 0.00 | 0.00 | 0.00 | 39 | 1013.2 |
| 20260503235713 | 14 | 289 | 0.0 | 0.0 | 0.00 | 0.00 | 0.00 | 39 | 1013.2 |
| 20260503235209 | 14 | 292 | 0.0 | 0.0 | 0.00 | 0.00 | 0.00 | 39 | 1013.3 |
| 20260503234707 | 14 | 306 | 0.0 | 0.0 | 0.00 | 0.00 | 0.00 | 39 | 1013.1 |
| 20260503234205 | 14 | 290 | 0.0 | 3.2 | 0.00 | 0.00 | 0.00 | 39 | 1013.0 |
| 20260503233701 | 15 | 303 | 3.2 | 3.2 | 0.00 | 0.00 | 0.00 | 38 | 1012.9 |
| 20260503233157 | 15 | 301 | 3.2 | 8.0 | 0.00 | 0.00 | 0.00 | 38 | 1013.0 |
| 20260503232654 | 15 | 313 | 4.8 | 4.8 | 0.00 | 0.00 | 0.00 | 38 | 1012.8 |
| 20260503232151 | 15 | 307 | 4.8 | 4.8 | 0.00 | 0.00 | 0.00 | 37 | 1013.0 |
| 20260503231650 | 16 | 315 | 6.4 | 8.0 | 0.00 | 0.00 | 0.00 | 37 | 1013.0 |
| 20260503231145 | 16 | 305 | 1.6 | 9.7 | 0.00 | 0.00 | 0.00 | 34 | 1012.7 |
| 20260503230642 | 16 | 273 | 9.7 | 14.5 | 0.00 | 0.00 | 0.00 | 34 | 1012.9 |
| 20260503230139 | 16 | 264 | 3.2 | 9.7 | 0.00 | 0.00 | 0.00 | 36 | 1012.6 |
| 20260503225637 | 16 | 300 | 6.4 | 9.7 | 0.00 | 0.00 | 0.00 | 36 | 1012.6 |
| 20260503225136 | 16 | 271 | 8.0 | 14.5 | 0.00 | 0.00 | 0.00 | 34 | 1012.6 |
| 20260503224634 | 16 | 260 | 8.0 | 11.3 | 0.00 | 0.00 | 0.00 | 35 | 1012.6 |
| 20260503224132 | 16 | 326 | 6.4 | 11.3 | 0.00 | 0.00 | 0.00 | 34 | 1012.8 |
| 20260503223630 | 16 | 336 | 8.0 | 11.3 | 0.00 | 0.00 | 0.00 | 36 | 1012.9 |
| 20260503223126 | 16 | 323 | 6.4 | 17.7 | 0.00 | 0.00 | 0.00 | 34 | 1012.9 |
| 20260503222623 | 16 | 312 | 1.6 | 4.8 | 0.00 | 0.00 | 0.00 | 35 | 1012.8 |
| 20260503222121 | 16 | 252 | 6.4 | 12.9 | 0.00 | 0.00 | 0.00 | 35 | 1012.8 |
| 20260503221619 | 16 | 303 | 9.7 | 16.1 | 0.00 | 0.00 | 0.00 | 35 | 1012.7 |
| 20260503221116 | 16 | 280 | 9.7 | 16.1 | 0.00 | 0.00 | 0.00 | 36 | 1012.7 |
| 20260503220613 | 16 | 336 | 11.3 | 14.5 | 0.00 | 0.00 | 0.00 | 36 | 1013.0 |
| 20260503220109 | 16 | 316 | 3.2 | 11.3 | 0.00 | 0.00 | 0.00 | 36 | 1012.8 |
| 20260503215607 | 16 | 325 | 6.4 | 12.9 | 0.00 | 0.00 | 0.00 | 35 | 1012.9 |
| 20260503215103 | 16 | 333 | 8.0 | 14.5 | 0.00 | 0.00 | 0.00 | 36 | 1012.9 |
| 20260503214602 | 16 | 310 | 12.9 | 17.7 | 0.00 | 0.00 | 0.00 | 35 | 1012.7 |
| 20260503214058 | 16 | 305 | 8.0 | 12.9 | 0.00 | 0.00 | 0.00 | 35 | 1012.7 |
| 20260503213557 | 16 | 297 | 3.2 | 9.7 | 0.00 | 0.00 | 0.00 | 35 | 1013.0 |
| 20260503213053 | 16 | 289 | 8.0 | 24.1 | 0.00 | 0.00 | 0.00 | 36 | 1012.7 |
| 20260503212550 | 16 | 281 | 3.2 | 14.5 | 0.00 | 0.00 | 0.00 | 36 | 1013.1 |
| 20260503212047 | 16 | 276 | 6.4 | 11.3 | 0.00 | 0.00 | 0.00 | 36 | 1012.7 |
| 20260503211545 | 16 | 301 | 1.6 | 12.9 | 0.00 | 0.00 | 0.00 | 38 | 1012.7 |
| 20260503211040 | 16 | 292 | 16.1 | 24.1 | 0.00 | 0.00 | 0.00 | 36 | 1012.9 |
| 20260503210537 | 16 | 310 | 6.4 | 12.9 | 0.00 | 0.00 | 0.00 | 36 | 1012.9 |
| 20260503210033 | 17 | 296 | 1.6 | 8.0 | 0.00 | 0.00 | 0.00 | 38 | 1012.7 |
| 20260503205530 | 16 | 301 | 3.2 | 11.3 | 0.00 | 0.00 | 0.00 | 36 | 1012.9 |
| 20260503205026 | 16 | 327 | 6.4 | 12.9 | 0.00 | 0.00 | 0.00 | 35 | 1012.8 |
| 20260503204523 | 16 | 314 | 14.5 | 27.4 | 0.00 | 0.00 | 0.00 | 37 | 1012.8 |
| 20260503204020 | 15 | 323 | 12.9 | 22.5 | 0.00 | 0.00 | 0.00 | 37 | 1012.9 |
| 20260503203517 | 15 | 324 | 11.3 | 17.7 | 0.00 | 0.00 | 0.00 | 37 | 1013.1 |
| 20260503203014 | 16 | 315 | 11.3 | 16.1 | 0.00 | 0.00 | 0.00 | 39 | 1013.2 |
| 20260503202512 | 16 | 319 | 9.7 | 16.1 | 0.00 | 0.00 | 0.00 | 37 | 1013.1 |
| 20260503202010 | 15 | 299 | 1.6 | 14.5 | 0.00 | 0.00 | 0.00 | 41 | 1013.2 |
| 20260503201508 | 15 | 330 | 12.9 | 17.7 | 0.00 | 0.00 | 0.00 | 36 | 1013.2 |
| 20260503201005 | 15 | 319 | 9.7 | 14.5 | 0.00 | 0.00 | 0.00 | 39 | 1013.2 |
| 20260503200501 | 16 | 293 | 12.9 | 22.5 | 0.00 | 0.00 | 0.00 | 35 | 1013.5 |
| 20260503195957 | 16 | 250 | 6.4 | 20.9 | 0.00 | 0.00 | 0.00 | 34 | 1013.4 |
| 20260503195455 | 16 | 301 | 6.4 | 9.7 | 0.00 | 0.00 | 0.00 | 36 | 1013.3 |
| 20260503194951 | 15 | 335 | 8.0 | 14.5 | 0.00 | 0.00 | 0.00 | 38 | 1013.5 |
| 20260503194449 | 15 | 323 | 11.3 | 14.5 | 0.00 | 0.00 | 0.00 | 35 | 1013.6 |
| 20260503193944 | 15 | 300 | 11.3 | 17.7 | 0.00 | 0.00 | 0.00 | 35 | 1013.7 |
| 20260503193439 | 15 | 279 | 8.0 | 17.7 | 0.00 | 0.00 | 0.00 | 35 | 1014.0 |
| 20260503192935 | 15 | 316 | 12.9 | 24.1 | 0.00 | 0.00 | 0.00 | 38 | 1013.8 |
| 20260503192432 | 15 | 284 | 11.3 | 16.1 | 0.00 | 0.00 | 0.00 | 35 | 1013.9 |
| 20260503191927 | 14 | 324 | 9.7 | 22.5 | 0.00 | 0.00 | 0.00 | 37 | 1013.9 |
| 20260503191425 | 15 | 266 | 8.0 | 11.3 | 0.00 | 0.00 | 0.00 | 35 | 1014.3 |
| 20260503190921 | 14 | 332 | 20.9 | 25.7 | 0.00 | 0.00 | 0.00 | 37 | 1014.2 |
| 20260503190419 | 13 | 321 | 11.3 | 22.5 | 0.00 | 0.00 | 0.00 | 36 | 1014.2 |
| 20260503185915 | 15 | 272 | 14.5 | 16.1 | 0.00 | 0.00 | 0.00 | 40 | 1014.3 |
| 20260503185412 | 15 | 303 | 4.8 | 16.1 | 0.00 | 0.00 | 0.00 | 37 | 1014.5 |
| 20260503184911 | 14 | 272 | 6.4 | 24.1 | 0.00 | 0.00 | 0.00 | 38 | 1014.5 |
| 20260503184408 | 14 | 323 | 14.5 | 16.1 | 0.00 | 0.00 | 0.00 | 41 | 1014.2 |
| 20260503183904 | 14 | 331 | 8.0 | 14.5 | 0.00 | 0.00 | 0.00 | 37 | 1014.7 |
| 20260503183401 | 15 | 254 | 16.1 | 22.5 | 0.00 | 0.00 | 0.00 | 35 | 1014.8 |
| 20260503182858 | 14 | 329 | 9.7 | 20.9 | 0.00 | 0.00 | 0.00 | 37 | 1014.8 |
| 20260503182357 | 14 | 312 | 17.7 | 25.7 | 0.00 | 0.00 | 0.00 | 38 | 1014.8 |
| 20260503181854 | 15 | 174 | 6.4 | 20.9 | 0.00 | 0.00 | 0.00 | 38 | 1014.7 |
| 20260503181351 | 13 | 286 | 12.9 | 20.9 | 0.00 | 0.00 | 0.00 | 36 | 1014.8 |
| 20260503180847 | 13 | 322 | 17.7 | 24.1 | 0.00 | 0.00 | 0.00 | 40 | 1014.9 |
| 20260503180345 | 13 | 349 | 17.7 | 22.5 | 0.00 | 0.00 | 0.00 | 38 | 1014.9 |
| 20260503175842 | 13 | 309 | 16.1 | 20.9 | 0.00 | 0.00 | 0.00 | 37 | 1015.1 |
| 20260503175340 | 13 | 310 | 16.1 | 27.4 | 0.00 | 0.00 | 0.00 | 41 | 1015.1 |
| 20260503174835 | 13 | 320 | 11.3 | 20.9 | 0.00 | 0.00 | 0.00 | 39 | 1015.3 |
| 20260503174333 | 13 | 237 | 19.3 | 22.5 | 0.00 | 0.00 | 0.00 | 39 | 1015.2 |
| 20260503173828 | 13 | 300 | 6.4 | 12.9 | 0.00 | 0.00 | 0.00 | 42 | 1015.4 |
| 20260503173325 | 13 | 323 | 6.4 | 12.9 | 0.00 | 0.00 | 0.00 | 41 | 1015.3 |
| 20260503172822 | 12 | 311 | 6.4 | 12.9 | 0.00 | 0.00 | 0.00 | 42 | 1015.5 |
| 20260503172320 | 13 | 266 | 8.0 | 24.1 | 0.00 | 0.00 | 0.00 | 42 | 1015.4 |
| 20260503171815 | 13 | 304 | 4.8 | 8.0 | 0.00 | 0.00 | 0.00 | 44 | 1015.3 |
| 20260503171312 | 12 | 305 | 12.9 | 20.9 | 0.00 | 0.00 | 0.00 | 40 | 1015.5 |
| 20260503170809 | 12 | 282 | 14.5 | 20.9 | 0.00 | 0.00 | 0.00 | 44 | 1015.3 |
| 20260503170306 | 12 | 243 | 8.0 | 14.5 | 0.00 | 0.00 | 0.00 | 42 | 1015.7 |
| 20260503150658 | 10 | 347 | 25.7 | 33.8 | 0.00 | 0.00 | 0.00 | 47 | 1016.6 |
| 20260503150154 | 10 | 328 | 8.0 | 12.9 | 0.00 | 0.00 | 0.00 | 52 | 1016.3 |
| 20260503140119 | 8 | 333 | 11.3 | 20.9 | 0.00 | 0.00 | 0.00 | 56 | 1016.8 |
| 20260503131048 | 7 | 323 | 4.8 | 12.9 | 0.00 | 0.00 | 0.00 | 56 | 1016.8 |
| 20260503130545 | 7 | 325 | 8.0 | 14.5 | 0.00 | 0.00 | 0.00 | 58 | 1016.7 |